Location: Barruelo
(41.2448°N, 3.8231°W)
Time: 08:38:46
(UTC+00:00)

Cosmos 2227 Rocket - Pass Details

Date: 21 March 2026
Orbit: 836 x 845 km, 71.0° (Epoch: 18 April)

Event Time Altitude Azimuth Distance (km) Brightness Sun altitude
Rises 21:59:13 0° 332° (NNW) 3,413 6.2 -37.2°
Reaches altitude 10° 22:01:42 10° 328° (NNW) 2,474 5.3 -37.5°
Enters shadow 22:04:37 30° 316° (NW) 1,465 3.8 -37.9°
